Time,TemperatureF,DewpointF,PressureIn,WindDirection,WindDirectionDegrees,WindSpeedMPH,WindSpeedGustMPH,Humidity,HourlyPrecipIn,Conditions,Clouds,dailyrainin,SoftwareType,DateUTC
2013-07-05 00:01:00,70.0,63.9,29.89,SW,220,0.0,0.0,81,0.00,,,0.39,VWS V14.01,2013-07-05 04:01:00,
2013-07-05 00:02:00,70.0,63.9,29.89,SW,220,0.0,0.0,81,0.00,,,0.39,VWS V14.01,2013-07-05 04:02:00,
2013-07-05 00:03:00,70.0,63.9,29.89,SW,220,0.0,0.0,81,0.00,,,0.00,VWS V14.01,2013-07-05 04:03:00,
2013-07-05 00:05:00,70.0,64.2,29.89,SW,219,0.0,0.0,82,0.00,,,0.00,VWS V14.01,2013-07-05 04:05:00,
2013-07-05 00:07:00,70.0,64.2,29.89,SW,219,0.0,0.0,82,0.00,,,0.00,VWS V14.01,2013-07-05 04:07:00,
2013-07-05 00:12:00,70.0,64.6,29.89,SW,220,0.0,0.0,83,0.00,,,0.00,VWS V14.01,2013-07-05 04:12:00,
2013-07-05 00:17:00,69.8,64.4,29.89,SW,219,0.0,0.0,83,0.00,,,0.00,VWS V14.01,2013-07-05 04:17:00,
2013-07-05 00:22:00,70.0,64.9,29.86,SW,219,0.0,0.0,84,0.00,,,0.00,VWS V14.01,2013-07-05 04:22:00,
2013-07-05 00:27:00,70.2,65.1,29.86,SW,219,0.0,0.0,84,0.00,,,0.00,VWS V14.01,2013-07-05 04:27:00,
2013-07-05 00:32:00,69.8,64.4,29.86,SW,219,0.0,0.0,83,0.00,,,0.00,VWS V14.01,2013-07-05 04:32:00,
2013-07-05 00:37:00,69.8,64.8,29.86,SW,219,0.0,0.0,84,0.00,,,0.00,VWS V14.01,2013-07-05 04:37:00,
2013-07-05 00:42:00,69.6,64.6,29.86,SW,219,0.0,0.0,84,0.00,,,0.00,VWS V14.01,2013-07-05 04:42:00,
2013-07-05 00:47:00,69.6,64.9,29.86,SW,220,0.0,0.0,85,0.00,,,0.00,VWS V14.01,2013-07-05 04:47:00,
2013-07-05 00:52:00,69.6,64.9,29.86,SW,220,0.0,0.0,85,0.00,,,0.00,VWS V14.01,2013-07-05 04:52:00,
2013-07-05 00:57:00,69.8,65.1,29.86,SW,219,0.0,0.0,85,0.00,,,0.00,VWS V14.01,2013-07-05 04:57:00,
2013-07-05 01:02:00,69.8,65.4,29.86,SW,220,0.0,0.0,86,0.00,,,0.00,VWS V14.01,2013-07-05 05:02:00,
2013-07-05 01:07:00,69.4,64.7,29.89,SW,219,0.0,0.0,85,0.00,,,0.00,VWS V14.01,2013-07-05 05:07:00,
2013-07-05 01:12:00,69.3,64.6,29.89,SW,219,0.0,0.0,85,0.00,,,0.00,VWS V14.01,2013-07-05 05:12:00,
2013-07-05 01:17:00,69.4,64.7,29.89,SW,219,0.0,0.0,85,0.00,,,0.00,VWS V14.01,2013-07-05 05:17:00,
2013-07-05 01:22:00,69.4,65.1,29.89,SW,219,0.0,0.0,86,0.00,,,0.00,VWS V14.01,2013-07-05 05:22:00,
2013-07-05 01:27:00,69.4,65.4,29.89,SW,219,0.0,0.0,87,0.00,,,0.00,VWS V14.01,2013-07-05 05:27:00,
2013-07-05 01:32:00,69.6,65.6,29.89,SW,219,0.0,0.0,87,0.00,,,0.00,VWS V14.01,2013-07-05 05:32:00,
2013-07-05 01:37:00,69.6,65.6,29.89,SW,219,0.0,0.0,87,0.00,,,0.00,VWS V14.01,2013-07-05 05:37:00,
2013-07-05 01:42:00,69.6,65.6,29.89,SW,219,0.0,0.0,87,0.00,,,0.00,VWS V14.01,2013-07-05 05:42:00,
2013-07-05 01:47:00,69.6,65.9,29.89,SW,219,0.0,0.0,88,0.00,,,0.00,VWS V14.01,2013-07-05 05:47:00,
2013-07-05 01:52:00,69.6,65.9,29.89,SW,220,0.0,0.0,88,0.00,,,0.00,VWS V14.01,2013-07-05 05:52:00,
2013-07-05 01:57:00,69.8,66.1,29.89,SW,219,0.0,0.0,88,0.00,,,0.00,VWS V14.01,2013-07-05 05:57:00,
2013-07-05 02:02:00,69.6,65.9,29.89,SW,219,0.0,0.0,88,0.00,,,0.00,VWS V14.01,2013-07-05 06:02:00,
2013-07-05 02:07:00,69.6,65.9,29.89,SW,219,0.0,0.0,88,0.00,,,0.00,VWS V14.01,2013-07-05 06:07:00,
2013-07-05 02:12:00,69.6,65.9,29.89,SW,219,0.0,0.0,88,0.00,,,0.00,VWS V14.01,2013-07-05 06:12:00,
2013-07-05 02:17:00,69.6,65.9,29.89,SW,219,0.0,0.0,88,0.00,,,0.00,VWS V14.01,2013-07-05 06:17:00,
2013-07-05 02:22:00,69.4,65.7,29.89,SW,219,0.0,0.0,88,0.00,,,0.00,VWS V14.01,2013-07-05 06:22:00,
2013-07-05 02:27:00,69.4,65.7,29.89,SW,219,0.0,0.0,88,0.00,,,0.00,VWS V14.01,2013-07-05 06:27:00,
2013-07-05 02:32:00,69.3,65.6,29.89,SW,219,0.0,0.0,88,0.00,,,0.00,VWS V14.01,2013-07-05 06:32:00,
2013-07-05 02:37:00,69.3,65.9,29.89,SW,219,0.0,0.0,89,0.00,,,0.00,VWS V14.01,2013-07-05 06:37:00,
2013-07-05 02:42:00,69.6,66.2,29.89,SW,219,0.0,0.0,89,0.00,,,0.00,VWS V14.01,2013-07-05 06:42:00,
2013-07-05 02:47:00,69.6,66.6,29.89,SW,220,0.0,0.0,90,0.00,,,0.00,VWS V14.01,2013-07-05 06:47:00,
2013-07-05 02:52:00,69.6,66.6,29.89,SW,220,0.0,0.0,90,0.00,,,0.00,VWS V14.01,2013-07-05 06:52:00,
2013-07-05 02:57:00,69.8,66.7,29.89,SW,219,0.0,0.0,90,0.00,,,0.00,VWS V14.01,2013-07-05 06:57:00,
2013-07-05 03:02:00,69.8,66.7,29.89,SW,219,0.0,0.0,90,0.00,,BKN250,0.00,VWS V14.01,2013-07-05 07:02:00,
2013-07-05 03:07:00,69.6,66.6,29.89,SW,219,0.0,0.0,90,0.00,,BKN250,0.00,VWS V14.01,2013-07-05 07:07:00,
2013-07-05 03:13:00,69.6,66.6,29.89,SW,219,0.0,0.0,90,0.00,,BKN250,0.00,VWS V14.01,2013-07-05 07:13:00,
2013-07-05 03:18:00,69.8,66.4,29.89,SW,220,0.0,0.0,89,0.00,,BKN250,0.00,VWS V14.01,2013-07-05 07:18:00,
2013-07-05 03:23:00,69.8,66.4,29.89,SW,219,0.0,0.0,89,0.00,,BKN250,0.00,VWS V14.01,2013-07-05 07:23:00,
2013-07-05 03:28:00,69.8,66.4,29.89,SW,219,0.0,0.0,89,0.00,,BKN250,0.00,VWS V14.01,2013-07-05 07:28:00,
2013-07-05 03:33:00,69.6,66.2,29.89,SW,219,0.0,0.0,89,0.00,,OVC075,0.00,VWS V14.01,2013-07-05 07:33:00,
2013-07-05 03:38:00,69.4,66.1,29.86,SW,219,0.0,0.0,89,0.00,,OVC075,0.00,VWS V14.01,2013-07-05 07:38:00,
2013-07-05 03:43:00,69.3,65.9,29.86,SW,219,0.0,0.0,89,0.00,,OVC075,0.00,VWS V14.01,2013-07-05 07:43:00,
2013-07-05 03:48:00,69.1,65.7,29.86,SW,219,0.0,0.0,89,0.00,,OVC075,0.00,VWS V14.01,2013-07-05 07:48:00,
2013-07-05 03:53:00,69.3,65.9,29.86,SW,220,0.0,0.0,89,0.00,,OVC075,0.00,VWS V14.01,2013-07-05 07:53:00,
2013-07-05 03:58:00,69.1,65.4,29.86,SW,219,0.0,0.0,88,0.00,,OVC075,0.00,VWS V14.01,2013-07-05 07:58:00,
2013-07-05 04:03:00,68.9,65.2,29.86,SW,219,0.0,0.0,88,0.00,,OVC075,0.00,VWS V14.01,2013-07-05 08:03:00,
2013-07-05 04:08:00,68.9,65.5,29.86,SW,219,0.0,0.0,89,0.00,,OVC075,0.00,VWS V14.01,2013-07-05 08:08:00,
2013-07-05 04:13:00,69.1,66.0,29.86,SW,220,0.0,0.0,90,0.00,,OVC075,0.00,VWS V14.01,2013-07-05 08:13:00,
2013-07-05 04:18:00,69.3,66.2,29.86,SW,219,0.0,0.0,90,0.00,,OVC075,0.00,VWS V14.01,2013-07-05 08:18:00,
2013-07-05 04:23:00,69.6,66.9,29.86,SW,219,0.0,0.0,91,0.00,,OVC075,0.00,VWS V14.01,2013-07-05 08:23:00,
2013-07-05 04:28:00,69.3,66.5,29.86,SW,220,0.0,0.0,91,0.00,,OVC075,0.00,VWS V14.01,2013-07-05 08:28:00,
2013-07-05 04:33:00,69.4,66.7,29.86,SW,219,0.0,0.0,91,0.00,,OVC075,0.00,VWS V14.01,2013-07-05 08:33:00,
2013-07-05 04:38:00,69.4,66.7,29.86,SW,219,0.0,0.0,91,0.00,,OVC075,0.00,VWS V14.01,2013-07-05 08:38:00,
2013-07-05 04:43:00,69.4,66.7,29.86,SW,219,0.0,0.0,91,0.00,,OVC075,0.00,VWS V14.01,2013-07-05 08:43:00,
2013-07-05 04:48:00,69.4,66.7,29.86,SW,219,0.0,0.0,91,0.00,,OVC075,0.00,VWS V14.01,2013-07-05 08:48:00,
2013-07-05 04:53:00,69.3,66.2,29.86,SW,219,0.0,0.0,90,0.00,,OVC075,0.00,VWS V14.01,2013-07-05 08:53:00,
2013-07-05 04:58:00,69.1,66.0,29.86,SW,219,0.0,0.0,90,0.00,,OVC075,0.00,VWS V14.01,2013-07-05 08:58:00,
2013-07-05 05:03:00,68.9,65.5,29.86,SW,219,0.0,0.0,89,0.00,,OVC055,0.00,VWS V14.01,2013-07-05 09:03:00,
2013-07-05 05:09:00,68.7,65.0,29.86,SW,219,0.0,0.0,88,0.00,,OVC055,0.00,VWS V14.01,2013-07-05 09:09:00,
2013-07-05 05:14:00,68.7,65.3,29.86,SW,220,0.0,0.0,89,0.00,,OVC055,0.00,VWS V14.01,2013-07-05 09:14:00,
2013-07-05 05:19:00,68.7,65.3,29.86,SW,219,0.0,0.0,89,0.00,,OVC055,0.00,VWS V14.01,2013-07-05 09:19:00,
2013-07-05 05:24:00,69.1,66.0,29.86,SW,219,0.0,0.0,90,0.00,,OVC055,0.00,VWS V14.01,2013-07-05 09:24:00,
2013-07-05 05:29:00,68.9,65.8,29.86,SW,219,0.0,0.0,90,0.00,,OVC055,0.00,VWS V14.01,2013-07-05 09:29:00,
2013-07-05 05:35:00,68.7,65.7,29.86,SW,219,0.0,0.0,90,0.00,,BKN180,0.00,VWS V14.01,2013-07-05 09:35:00,
2013-07-05 05:40:00,68.9,65.8,29.86,SW,219,0.0,0.0,90,0.00,,BKN180,0.00,VWS V14.01,2013-07-05 09:40:00,
2013-07-05 05:45:00,68.7,65.7,29.86,SW,219,0.0,0.0,90,0.00,,BKN180,0.00,VWS V14.01,2013-07-05 09:45:00,
2013-07-05 05:50:00,68.5,65.5,29.86,SW,223,0.0,0.0,90,0.00,,BKN180,0.00,VWS V14.01,2013-07-05 09:50:00,
2013-07-05 05:55:00,68.5,65.5,29.89,SW,223,0.0,0.0,90,0.00,,BKN180,0.00,VWS V14.01,2013-07-05 09:55:00,
2013-07-05 06:01:00,68.5,65.5,29.89,SW,223,0.0,0.0,90,0.00,,BKN180,0.00,VWS V14.01,2013-07-05 10:01:00,
2013-07-05 06:07:00,68.5,65.5,29.89,SW,223,0.0,0.0,90,0.00,,BKN180,0.00,VWS V14.01,2013-07-05 10:07:00,
2013-07-05 06:12:00,68.5,65.5,29.89,SW,223,0.0,0.0,90,0.00,,BKN180,0.00,VWS V14.01,2013-07-05 10:12:00,
2013-07-05 06:17:00,68.4,65.0,29.89,SW,223,0.0,0.0,89,0.00,,BKN180,0.00,VWS V14.01,2013-07-05 10:17:00,
2013-07-05 06:22:00,68.4,65.0,29.89,SW,223,0.0,0.0,89,0.00,,BKN180,0.00,VWS V14.01,2013-07-05 10:22:00,
2013-07-05 06:27:00,69.1,66.3,29.89,SW,218,0.0,0.0,91,0.00,,BKN180,0.00,VWS V14.01,2013-07-05 10:27:00,
2013-07-05 06:32:00,69.3,66.5,29.89,SW,218,0.0,0.0,91,0.00,,BKN180,0.00,VWS V14.01,2013-07-05 10:32:00,
2013-07-05 06:37:00,69.6,66.9,29.89,SW,218,0.0,0.0,91,0.00,,BKN180,0.00,VWS V14.01,2013-07-05 10:37:00,
2013-07-05 06:42:00,69.6,67.2,29.89,SW,218,0.0,0.0,92,0.00,,BKN180,0.00,VWS V14.01,2013-07-05 10:42:00,
2013-07-05 06:48:00,69.8,67.1,29.89,SW,218,0.0,0.0,91,0.00,,BKN180,0.00,VWS V14.01,2013-07-05 10:48:00,
2013-07-05 06:53:00,69.8,67.1,29.89,SW,218,0.0,0.0,91,0.00,,BKN180,0.00,VWS V14.01,2013-07-05 10:53:00,
2013-07-05 06:58:00,69.6,67.2,29.89,SW,218,0.0,0.0,92,0.00,,BKN180,0.00,VWS V14.01,2013-07-05 10:58:00,
2013-07-05 07:04:00,69.8,67.4,29.89,SW,218,0.0,0.0,92,0.00,,BKN270,0.00,VWS V14.01,2013-07-05 11:04:00,
2013-07-05 07:09:00,70.5,68.4,29.86,SW,218,0.0,0.0,93,0.00,,BKN270,0.00,VWS V14.01,2013-07-05 11:09:00,
2013-07-05 07:14:00,71.2,69.1,29.86,SW,218,0.0,0.0,93,0.00,,BKN270,0.00,VWS V14.01,2013-07-05 11:14:00,
2013-07-05 07:19:00,71.4,69.3,29.86,SW,218,0.0,0.0,93,0.00,,BKN270,0.00,VWS V14.01,2013-07-05 11:19:00,
2013-07-05 07:24:00,71.6,69.2,29.86,SW,218,0.0,0.0,92,0.00,,BKN270,0.00,VWS V14.01,2013-07-05 11:24:00,
2013-07-05 07:29:00,71.8,69.0,29.86,SW,218,0.0,0.0,91,0.00,,BKN270,0.00,VWS V14.01,2013-07-05 11:29:00,
2013-07-05 07:35:00,71.8,68.7,29.86,SW,218,0.0,0.0,90,0.00,,BKN280,0.00,VWS V14.01,2013-07-05 11:35:00,
2013-07-05 07:41:00,72.0,68.6,29.89,SW,218,0.0,0.0,89,0.00,,BKN280,0.00,VWS V14.01,2013-07-05 11:41:00,
2013-07-05 07:46:00,72.0,68.2,29.89,South,176,0.0,0.0,88,0.00,,BKN280,0.00,VWS V14.01,2013-07-05 11:46:00,
2013-07-05 07:51:00,72.1,68.1,29.89,SSE,164,0.0,0.0,87,0.00,,BKN280,0.00,VWS V14.01,2013-07-05 11:51:00,
2013-07-05 07:56:00,72.1,68.1,29.89,South,187,0.0,0.0,87,0.00,,BKN280,0.00,VWS V14.01,2013-07-05 11:56:00,
2013-07-05 08:02:00,72.5,68.1,29.89,South,186,0.0,0.0,86,0.00,,BKN280,0.00,VWS V14.01,2013-07-05 12:02:00,
2013-07-05 08:07:00,72.7,68.6,29.86,SE,146,0.0,2.2,87,0.00,,BKN280,0.00,VWS V14.01,2013-07-05 12:07:00,
2013-07-05 08:12:00,72.9,68.4,29.86,South,173,0.0,0.0,86,0.00,,BKN280,0.00,VWS V14.01,2013-07-05 12:12:00,
2013-07-05 08:18:00,72.9,68.4,29.86,SE,146,0.0,0.0,86,0.00,,BKN280,0.00,VWS V14.01,2013-07-05 12:18:00,
2013-07-05 08:23:00,73.0,68.6,29.86,SE,133,0.0,2.7,86,0.00,,BKN280,0.00,VWS V14.01,2013-07-05 12:23:00,
2013-07-05 08:29:00,73.2,68.4,29.86,South,179,0.0,0.0,85,0.00,,BKN280,0.00,VWS V14.01,2013-07-05 12:29:00,
2013-07-05 08:34:00,73.8,68.6,29.86,SSE,164,0.0,0.0,84,0.00,,BKN190,0.00,VWS V14.01,2013-07-05 12:34:00,
2013-07-05 08:39:00,74.7,69.9,29.86,SSW,193,0.0,0.0,85,0.00,,BKN190,0.00,VWS V14.01,2013-07-05 12:39:00,
2013-07-05 08:44:00,75.0,69.2,29.86,SSW,193,0.0,0.0,82,0.00,,BKN190,0.00,VWS V14.01,2013-07-05 12:44:00,
2013-07-05 08:50:00,75.4,68.8,29.86,SSW,198,0.0,0.0,80,0.00,,BKN190,0.00,VWS V14.01,2013-07-05 12:50:00,
2013-07-05 08:55:00,75.4,68.4,29.86,SSE,166,0.0,2.2,79,0.00,,BKN190,0.00,VWS V14.01,2013-07-05 12:55:00,
2013-07-05 09:00:00,75.4,68.1,29.86,SSE,168,0.0,4.0,78,0.00,,BKN190,0.00,VWS V14.01,2013-07-05 13:00:00,
2013-07-05 09:05:00,75.6,68.2,29.86,South,187,0.0,0.0,78,0.00,,BKN190,0.00,VWS V14.01,2013-07-05 13:05:00,
2013-07-05 09:11:00,75.9,68.2,29.86,South,172,0.0,0.0,77,0.00,,BKN190,0.00,VWS V14.01,2013-07-05 13:11:00,
2013-07-05 09:17:00,76.3,68.6,29.86,SSE,163,0.0,0.0,77,0.00,,BKN190,0.00,VWS V14.01,2013-07-05 13:17:00,
2013-07-05 09:22:00,76.3,67.8,29.86,ESE,113,0.0,2.7,75,0.00,,BKN190,0.00,VWS V14.01,2013-07-05 13:22:00,
2013-07-05 09:27:00,76.6,68.1,29.86,SSE,147,6.7,6.7,75,0.00,,BKN190,0.00,VWS V14.01,2013-07-05 13:27:00,
2013-07-05 09:33:00,77.4,68.8,29.86,SSE,168,3.6,5.8,75,0.00,,-RA,0.00,VWS V14.01,2013-07-05 13:33:00,
2013-07-05 09:39:00,77.7,68.4,29.86,South,182,6.3,7.2,73,0.00,,-RA,0.00,VWS V14.01,2013-07-05 13:39:00,
2013-07-05 09:44:00,77.7,68.4,29.86,SSE,166,6.3,6.3,73,0.00,,-RA,0.00,VWS V14.01,2013-07-05 13:44:00,
2013-07-05 09:50:00,77.5,68.2,29.86,South,172,4.0,6.3,73,0.00,,-RA,0.00,VWS V14.01,2013-07-05 13:50:00,
2013-07-05 09:55:00,78.3,69.7,29.86,SSW,206,3.6,4.9,75,0.00,,-RA,0.00,VWS V14.01,2013-07-05 13:55:00,
2013-07-05 10:01:00,78.4,69.5,29.86,South,183,3.6,4.9,74,0.00,,-RA,0.00,VWS V14.01,2013-07-05 14:01:00,
2013-07-05 10:07:00,78.6,69.7,29.86,South,177,5.8,6.3,74,0.00,,-RA,0.00,VWS V14.01,2013-07-05 14:07:00,
2013-07-05 10:12:00,78.6,68.8,29.86,South,177,2.7,5.8,72,0.00,,-RA,0.00,VWS V14.01,2013-07-05 14:12:00,
2013-07-05 10:17:00,78.8,69.0,29.86,West,268,2.7,4.9,72,0.00,,-RA,0.00,VWS V14.01,2013-07-05 14:17:00,
2013-07-05 10:22:00,79.5,69.7,29.86,SSW,192,4.9,5.8,72,0.00,,-RA,0.00,VWS V14.01,2013-07-05 14:22:00,
2013-07-05 10:27:00,79.7,69.9,29.86,SSW,204,2.7,5.8,72,0.00,,-RA,0.00,VWS V14.01,2013-07-05 14:27:00,
2013-07-05 10:35:00,80.4,70.2,29.86,South,186,2.7,6.7,71,0.00,,-RA,0.00,VWS V14.01,2013-07-05 14:35:00,
2013-07-05 10:40:00,80.6,69.9,29.86,SE,131,4.0,5.4,70,0.00,,-RA,0.00,VWS V14.01,2013-07-05 14:40:00,
2013-07-05 10:45:00,80.4,69.3,29.86,SW,217,5.4,5.4,69,0.00,,-RA,0.00,VWS V14.01,2013-07-05 14:45:00,
2013-07-05 10:50:00,80.2,67.9,29.86,West,274,10.5,10.5,66,0.00,,-RA,0.00,VWS V14.01,2013-07-05 14:50:00,
2013-07-05 10:56:00,80.8,68.4,29.86,SW,222,8.3,8.7,66,0.00,,-RA,0.00,VWS V14.01,2013-07-05 14:56:00,
2013-07-05 11:02:00,81.3,68.9,29.86,WSW,250,8.7,9.2,66,0.00,,BKN280,0.00,VWS V14.01,2013-07-05 15:02:00,
2013-07-05 11:07:00,81.7,68.8,29.86,SW,224,6.3,8.3,65,0.00,,BKN280,0.00,VWS V14.01,2013-07-05 15:07:00,
2013-07-05 11:13:00,81.7,68.3,29.86,SW,218,7.6,10.1,64,0.00,,BKN280,0.00,VWS V14.01,2013-07-05 15:13:00,
2013-07-05 11:18:00,81.5,67.7,29.86,SSW,197,5.4,8.1,63,0.00,,BKN280,0.00,VWS V14.01,2013-07-05 15:18:00,
2013-07-05 11:23:00,81.1,67.8,29.86,SW,219,6.3,8.1,64,0.00,,BKN280,0.00,VWS V14.01,2013-07-05 15:23:00,
2013-07-05 11:28:00,81.1,66.9,29.86,SW,220,7.6,12.3,62,0.00,,BKN280,0.00,VWS V14.01,2013-07-05 15:28:00,
2013-07-05 11:33:00,81.3,67.1,29.86,SSW,212,8.3,10.1,62,0.00,,OVC140,0.00,VWS V14.01,2013-07-05 15:33:00,
2013-07-05 11:38:00,81.3,67.1,29.86,SSW,211,5.8,5.8,62,0.00,,OVC140,0.00,VWS V14.01,2013-07-05 15:38:00,
2013-07-05 11:43:00,81.3,67.5,29.86,SW,224,5.4,8.1,63,0.00,,OVC140,0.00,VWS V14.01,2013-07-05 15:43:00,
2013-07-05 11:48:00,81.1,66.9,29.86,West,269,4.9,8.3,62,0.00,,OVC140,0.00,VWS V14.01,2013-07-05 15:48:00,
2013-07-05 11:52:00,80.8,66.1,29.86,SSW,202,5.8,8.1,61,0.00,,OVC140,0.00,VWS V14.01,2013-07-05 15:52:00,
2013-07-05 11:57:00,80.6,66.4,29.86,WSW,239,5.4,5.4,62,0.00,,OVC140,0.00,VWS V14.01,2013-07-05 15:57:00,
2013-07-05 12:02:00,80.4,66.7,29.86,WSW,249,3.6,5.8,63,0.00,,OVC140,0.00,VWS V14.01,2013-07-05 16:02:00,
2013-07-05 12:07:00,80.6,66.8,29.86,SW,233,2.7,3.1,63,0.00,,OVC140,0.00,VWS V14.01,2013-07-05 16:07:00,
2013-07-05 12:12:00,80.6,66.4,29.86,WSW,238,2.2,4.0,62,0.00,,OVC140,0.00,VWS V14.01,2013-07-05 16:12:00,
2013-07-05 12:17:00,80.6,66.8,29.86,NW,305,0.0,0.0,63,0.00,,OVC140,0.00,VWS V14.01,2013-07-05 16:17:00,
2013-07-05 12:22:00,80.6,67.3,29.86,WNW,294,0.0,3.6,64,0.00,,OVC140,0.00,VWS V14.01,2013-07-05 16:22:00,
2013-07-05 12:27:00,79.9,66.6,29.86,North,9,4.0,4.0,64,0.00,,OVC140,0.00,VWS V14.01,2013-07-05 16:27:00,
2013-07-05 12:32:00,79.7,66.9,29.86,WSW,257,6.3,6.3,65,0.00,,OVC140,0.00,VWS V14.01,2013-07-05 16:32:00,
2013-07-05 12:37:00,80.2,67.9,29.86,West,268,5.4,6.3,66,0.00,,OVC140,0.00,VWS V14.01,2013-07-05 16:37:00,
2013-07-05 12:42:00,80.6,68.2,29.86,WSW,240,5.4,6.3,66,0.00,,OVC140,0.00,VWS V14.01,2013-07-05 16:42:00,
2013-07-05 12:47:00,80.8,67.0,29.86,SSW,205,10.1,10.1,63,0.00,,OVC140,0.00,VWS V14.01,2013-07-05 16:47:00,
2013-07-05 12:52:00,80.6,66.4,29.86,SW,223,8.7,9.2,62,0.00,,OVC140,0.00,VWS V14.01,2013-07-05 16:52:00,
2013-07-05 12:57:00,80.4,66.2,29.86,SW,229,5.8,7.6,62,0.00,,OVC140,0.00,VWS V14.01,2013-07-05 16:57:00,
2013-07-05 13:02:00,80.6,66.8,29.86,SW,226,6.3,6.3,63,0.00,,OVC120,0.00,VWS V14.01,2013-07-05 17:02:00,
2013-07-05 13:07:00,81.1,67.4,29.86,West,281,8.7,8.7,63,0.00,,OVC120,0.00,VWS V14.01,2013-07-05 17:07:00,
2013-07-05 13:12:00,81.3,65.6,29.86,SW,234,11.4,11.4,59,0.00,,OVC120,0.00,VWS V14.01,2013-07-05 17:12:00,
2013-07-05 13:17:00,82.4,66.2,29.86,SW,214,10.1,13.2,58,0.00,,OVC120,0.00,VWS V14.01,2013-07-05 17:17:00,
2013-07-05 13:22:00,82.6,66.3,29.86,SSW,196,6.3,10.5,58,0.00,,OVC120,0.00,VWS V14.01,2013-07-05 17:22:00,
2013-07-05 13:27:00,82.2,64.5,29.86,SSW,211,6.3,10.1,55,0.00,,OVC120,0.00,VWS V14.01,2013-07-05 17:27:00,
2013-07-05 13:33:00,82.8,65.5,29.86,WSW,243,8.3,15.4,56,0.00,,OVC120,0.00,VWS V14.01,2013-07-05 17:33:00,
2013-07-05 13:38:00,83.7,65.8,29.83,WSW,256,6.3,10.5,55,0.00,,OVC120,0.00,VWS V14.01,2013-07-05 17:38:00,
2013-07-05 13:43:00,83.7,66.8,29.83,SW,226,9.6,9.6,57,0.00,,OVC120,0.00,VWS V14.01,2013-07-05 17:43:00,
2013-07-05 13:48:00,83.7,65.8,29.83,SSW,193,6.3,11.0,55,0.00,,OVC120,0.00,VWS V14.01,2013-07-05 17:48:00,
2013-07-05 13:53:00,83.1,64.8,29.83,SW,230,5.8,9.2,54,0.00,,OVC120,0.00,VWS V14.01,2013-07-05 17:53:00,
2013-07-05 13:58:00,83.1,64.2,29.83,SSW,212,4.5,7.6,53,0.00,,OVC120,0.00,VWS V14.01,2013-07-05 17:58:00,
2013-07-05 14:00:00,83.3,66.0,29.83,North,1,6.3,7.6,56,0.00,,OVC120,0.00,VWS V14.01,2013-07-05 18:00:00,
2013-07-05 14:05:00,83.1,64.8,29.83,West,270,4.0,8.3,54,0.00,,BKN170,0.00,VWS V14.01,2013-07-05 18:05:00,
2013-07-05 14:10:00,82.9,64.1,29.83,WSW,253,5.4,5.4,53,0.00,,BKN170,0.00,VWS V14.01,2013-07-05 18:10:00,
2013-07-05 14:15:00,83.5,65.6,29.83,SSW,194,0.0,0.0,55,0.00,,BKN170,0.00,VWS V14.01,2013-07-05 18:15:00,
2013-07-05 14:20:00,83.5,65.1,29.83,SSW,207,4.0,4.0,54,0.00,,BKN170,0.00,VWS V14.01,2013-07-05 18:20:00,
2013-07-05 14:25:00,82.9,64.6,29.83,SW,236,0.0,0.0,54,0.00,,BKN170,0.00,VWS V14.01,2013-07-05 18:25:00,
2013-07-05 14:30:00,83.3,65.5,29.83,SW,222,5.8,5.8,55,0.00,,BKN170,0.00,VWS V14.01,2013-07-05 18:30:00,
2013-07-05 14:35:00,84.0,64.5,29.83,SW,228,4.0,4.0,52,0.00,,BKN170,0.00,VWS V14.01,2013-07-05 18:35:00,
2013-07-05 14:40:00,84.6,65.6,29.83,WNW,289,8.1,8.1,53,0.00,,BKN170,0.00,VWS V14.01,2013-07-05 18:40:00,
2013-07-05 14:45:00,84.2,64.1,29.83,West,259,3.1,5.8,51,0.00,,BKN170,0.00,VWS V14.01,2013-07-05 18:45:00,
2013-07-05 14:50:00,84.4,64.3,29.83,West,259,2.2,4.0,51,0.00,,BKN170,0.00,VWS V14.01,2013-07-05 18:50:00,
2013-07-05 14:55:00,83.7,63.1,29.83,SW,228,5.4,7.6,50,0.00,,BKN170,0.00,VWS V14.01,2013-07-05 18:55:00,
2013-07-05 15:00:00,84.0,65.6,29.83,WSW,244,4.9,5.8,54,0.00,,BKN170,0.00,VWS V14.01,2013-07-05 19:00:00,
2013-07-05 15:05:00,82.9,62.4,29.83,SW,236,7.6,8.1,50,0.00,,BKN170,0.00,VWS V14.01,2013-07-05 19:05:00,
2013-07-05 15:10:00,82.9,63.5,29.80,SW,232,3.6,6.3,52,0.00,,BKN170,0.00,VWS V14.01,2013-07-05 19:10:00,
2013-07-05 15:15:00,82.8,63.4,29.80,SW,234,5.8,8.1,52,0.00,,BKN170,0.00,VWS V14.01,2013-07-05 19:15:00,
2013-07-05 15:20:00,82.4,63.0,29.80,West,275,0.0,2.2,52,0.00,,BKN170,0.00,VWS V14.01,2013-07-05 19:20:00,
2013-07-05 15:25:00,81.9,62.0,29.83,NW,308,2.7,3.6,51,0.00,,BKN170,0.00,VWS V14.01,2013-07-05 19:25:00,
2013-07-05 15:30:00,81.9,62.0,29.83,SSW,192,3.1,8.7,51,0.00,,BKN170,0.00,VWS V14.01,2013-07-05 19:30:00,
2013-07-05 15:35:00,82.2,63.4,29.83,WSW,257,8.1,8.7,53,0.00,,-RA,0.00,VWS V14.01,2013-07-05 19:35:00,
2013-07-05 15:40:00,81.0,62.2,29.83,SW,236,3.6,13.2,53,0.00,,-RA,0.00,VWS V14.01,2013-07-05 19:40:00,
2013-07-05 15:45:00,81.9,65.7,29.83,West,267,8.1,8.1,58,0.00,,-RA,0.00,VWS V14.01,2013-07-05 19:45:00,
2013-07-05 15:50:00,82.2,64.5,29.83,West,271,5.4,8.3,55,0.00,,-RA,0.00,VWS V14.01,2013-07-05 19:50:00,
2013-07-05 15:55:00,82.0,64.8,29.83,WNW,299,7.6,10.1,56,0.00,,-RA,0.00,VWS V14.01,2013-07-05 19:55:00,
2013-07-05 16:00:00,81.9,65.2,29.83,WNW,287,3.1,6.7,57,0.00,,-RA,0.00,VWS V14.01,2013-07-05 20:00:00,
2013-07-05 16:05:00,81.1,64.0,29.83,WSW,251,2.7,6.3,56,0.00,,-RA,0.00,VWS V14.01,2013-07-05 20:05:00,
2013-07-05 16:10:00,81.0,64.8,29.83,WSW,241,4.9,4.9,58,0.00,,-RA,0.00,VWS V14.01,2013-07-05 20:10:00,
2013-07-05 16:15:00,80.8,63.1,29.83,NW,313,4.0,10.5,55,0.00,,-RA,0.00,VWS V14.01,2013-07-05 20:15:00,
2013-07-05 16:21:00,80.2,63.1,29.83,West,271,5.8,10.5,56,0.00,,-RA,0.00,VWS V14.01,2013-07-05 20:21:00,
2013-07-05 16:26:00,80.4,64.3,29.83,WSW,243,3.6,11.4,58,0.00,,-RA,0.00,VWS V14.01,2013-07-05 20:26:00,
2013-07-05 16:31:00,80.6,64.5,29.83,NW,307,5.4,10.1,58,0.00,,-RA,0.00,VWS V14.01,2013-07-05 20:31:00,
2013-07-05 16:36:00,80.1,64.5,29.83,WSW,241,8.1,11.0,59,0.00,,BKN170,0.00,VWS V14.01,2013-07-05 20:36:00,
2013-07-05 16:41:00,79.7,64.1,29.83,West,263,5.8,9.6,59,0.00,,BKN170,0.00,VWS V14.01,2013-07-05 20:41:00,
2013-07-05 16:46:00,80.1,65.4,29.83,West,280,3.1,8.3,61,0.00,,BKN170,0.00,VWS V14.01,2013-07-05 20:46:00,
2013-07-05 16:51:00,80.1,65.4,29.83,WNW,290,8.1,11.0,61,0.00,,BKN170,0.00,VWS V14.01,2013-07-05 20:51:00,
2013-07-05 16:56:00,80.4,66.2,29.83,SW,231,11.0,11.0,62,0.00,,BKN170,0.00,VWS V14.01,2013-07-05 20:56:00,
2013-07-05 17:01:00,80.2,64.6,29.83,SW,231,7.6,12.8,59,0.00,,BKN170,0.00,VWS V14.01,2013-07-05 21:01:00,
2013-07-05 17:06:00,79.7,63.1,29.83,SSW,196,4.0,9.6,57,0.00,,BKN170,0.00,VWS V14.01,2013-07-05 21:06:00,
2013-07-05 17:11:00,79.7,63.6,29.83,SSW,211,2.7,7.6,58,0.00,,BKN170,0.00,VWS V14.01,2013-07-05 21:11:00,
2013-07-05 17:16:00,80.1,63.5,29.83,WNW,283,4.9,7.6,57,0.00,,BKN170,0.00,VWS V14.01,2013-07-05 21:16:00,
2013-07-05 17:21:00,80.4,63.8,29.83,SW,231,2.7,10.5,57,0.00,,BKN170,0.00,VWS V14.01,2013-07-05 21:21:00,
2013-07-05 17:26:00,80.4,62.3,29.83,WSW,238,2.7,12.8,54,0.00,,BKN170,0.00,VWS V14.01,2013-07-05 21:26:00,
2013-07-05 17:31:00,80.6,61.9,29.83,West,261,3.6,12.3,53,0.00,,BKN170,0.00,VWS V14.01,2013-07-05 21:31:00,
2013-07-05 17:36:00,81.1,63.5,29.83,WSW,244,5.8,8.7,55,0.00,,BKN200,0.00,VWS V14.01,2013-07-05 21:36:00,
2013-07-05 17:41:00,81.3,63.6,29.80,WNW,293,6.3,6.3,55,0.00,,BKN200,0.00,VWS V14.01,2013-07-05 21:41:00,
2013-07-05 17:46:00,80.8,62.1,29.80,WSW,258,8.7,12.8,53,0.00,,BKN200,0.00,VWS V14.01,2013-07-05 21:46:00,
2013-07-05 17:51:00,81.1,62.9,29.80,West,274,8.1,8.3,54,0.00,,BKN200,0.00,VWS V14.01,2013-07-05 21:51:00,
2013-07-05 17:56:00,80.8,62.1,29.80,West,270,7.6,11.0,53,0.00,,BKN200,0.00,VWS V14.01,2013-07-05 21:56:00,
2013-07-05 18:01:00,80.1,62.5,29.80,WSW,250,3.1,10.1,55,0.00,,BKN200,0.00,VWS V14.01,2013-07-05 22:01:00,
2013-07-05 18:06:00,79.9,61.8,29.80,WSW,258,7.2,11.0,54,0.00,,BKN200,0.00,VWS V14.01,2013-07-05 22:06:00,
2013-07-05 18:11:00,79.7,62.1,29.80,WNW,285,3.1,8.7,55,0.00,,BKN200,0.00,VWS V14.01,2013-07-05 22:11:00,
2013-07-05 18:16:00,79.3,61.8,29.80,SW,230,3.1,5.8,55,0.00,,BKN200,0.00,VWS V14.01,2013-07-05 22:16:00,
2013-07-05 18:22:00,78.8,61.8,29.80,WSW,239,3.6,8.3,56,0.00,,BKN200,0.00,VWS V14.01,2013-07-05 22:22:00,
2013-07-05 18:27:00,78.6,62.6,29.80,West,259,2.2,6.3,58,0.00,,BKN200,0.00,VWS V14.01,2013-07-05 22:27:00,
2013-07-05 18:32:00,78.6,62.6,29.80,SW,235,5.4,6.3,58,0.00,,BKN200,0.00,VWS V14.01,2013-07-05 22:32:00,
2013-07-05 18:37:00,78.1,62.1,29.83,SW,230,5.4,8.3,58,0.00,,BKN200,0.00,VWS V14.01,2013-07-05 22:37:00,
2013-07-05 18:42:00,77.9,62.4,29.83,WSW,258,5.4,5.4,59,0.00,,BKN200,0.00,VWS V14.01,2013-07-05 22:42:00,
2013-07-05 18:47:00,77.5,62.1,29.83,SW,229,8.3,8.3,59,0.00,,BKN200,0.00,VWS V14.01,2013-07-05 22:47:00,
2013-07-05 18:52:00,77.2,61.8,29.83,SW,234,3.6,7.6,59,0.00,,BKN200,0.00,VWS V14.01,2013-07-05 22:52:00,
2013-07-05 18:57:00,76.8,61.9,29.83,SSW,194,7.6,8.7,60,0.00,,BKN200,0.00,VWS V14.01,2013-07-05 22:57:00,
2013-07-05 19:02:00,76.6,62.2,29.83,SW,223,6.3,8.3,61,0.00,,BKN200,0.00,VWS V14.01,2013-07-05 23:02:00,
2013-07-05 19:07:00,76.8,62.4,29.83,SW,216,8.1,8.3,61,0.00,,BKN200,0.00,VWS V14.01,2013-07-05 23:07:00,
2013-07-05 19:12:00,76.6,62.2,29.83,SW,235,3.6,8.1,61,0.00,,BKN200,0.00,VWS V14.01,2013-07-05 23:12:00,
2013-07-05 19:17:00,76.6,62.7,29.83,WSW,251,5.8,5.8,62,0.00,,BKN200,0.00,VWS V14.01,2013-07-05 23:17:00,
2013-07-05 19:22:00,76.6,62.7,29.83,WSW,246,4.9,8.7,62,0.00,,BKN200,0.00,VWS V14.01,2013-07-05 23:22:00,
2013-07-05 19:27:00,76.1,62.2,29.83,West,279,3.1,5.8,62,0.00,,BKN200,0.00,VWS V14.01,2013-07-05 23:27:00,
2013-07-05 19:32:00,75.9,62.4,29.83,SW,223,3.6,4.0,63,0.00,,BKN200,0.00,VWS V14.01,2013-07-05 23:32:00,
2013-07-05 19:37:00,75.6,62.1,29.83,SW,235,5.4,7.6,63,0.00,,BKN200,0.00,VWS V14.01,2013-07-05 23:37:00,
2013-07-05 19:42:00,75.2,62.2,29.83,SW,220,3.1,7.6,64,0.00,,BKN200,0.00,VWS V14.01,2013-07-05 23:42:00,
2013-07-05 19:47:00,75.0,62.5,29.83,SSW,208,4.0,8.1,65,0.00,,BKN200,0.00,VWS V14.01,2013-07-05 23:47:00,
2013-07-05 19:52:00,74.8,62.3,29.83,SW,234,3.6,8.3,65,0.00,,BKN200,0.00,VWS V14.01,2013-07-05 23:52:00,
2013-07-05 19:57:00,74.7,62.1,29.83,SW,228,6.3,12.3,65,0.00,,BKN200,0.00,VWS V14.01,2013-07-05 23:57:00,
2013-07-05 20:02:00,74.5,62.4,29.83,WNW,288,0.0,8.3,66,0.00,,OVC085,0.00,VWS V14.01,2013-07-06 00:02:00,
2013-07-05 20:07:00,74.3,62.2,29.83,South,172,3.1,10.5,66,0.00,,OVC085,0.00,VWS V14.01,2013-07-06 00:07:00,
2013-07-05 20:12:00,73.9,62.3,29.83,West,266,3.1,6.3,67,0.00,,OVC085,0.00,VWS V14.01,2013-07-06 00:12:00,
2013-07-05 20:17:00,73.9,62.3,29.83,SW,234,4.0,6.3,67,0.00,,OVC085,0.00,VWS V14.01,2013-07-06 00:17:00,
2013-07-05 20:22:00,73.6,62.0,29.83,SSW,210,4.0,7.6,67,0.00,,OVC085,0.00,VWS V14.01,2013-07-06 00:22:00,
2013-07-05 20:27:00,73.6,62.4,29.83,SW,227,7.6,7.6,68,0.00,,OVC085,0.00,VWS V14.01,2013-07-06 00:27:00,
2013-07-05 20:32:00,73.4,62.2,29.83,SW,232,3.6,4.9,68,0.00,,OVC085,0.00,VWS V14.01,2013-07-06 00:32:00,
2013-07-05 20:37:00,73.4,62.6,29.83,SW,234,4.9,6.3,69,0.00,,BKN070,0.00,VWS V14.01,2013-07-06 00:37:00,
2013-07-05 20:42:00,73.0,62.3,29.83,WSW,237,3.6,9.6,69,0.00,,BKN070,0.00,VWS V14.01,2013-07-06 00:42:00,
2013-07-05 20:47:00,73.0,62.7,29.83,SSW,207,8.1,8.3,70,0.00,,BKN070,0.00,VWS V14.01,2013-07-06 00:47:00,
2013-07-05 20:52:00,72.9,62.5,29.83,WSW,245,5.4,8.3,70,0.00,,BKN070,0.00,VWS V14.01,2013-07-06 00:52:00,
2013-07-05 20:57:00,72.7,62.3,29.83,SW,231,6.3,7.6,70,0.00,,BKN070,0.00,VWS V14.01,2013-07-06 00:57:00,
2013-07-05 21:02:00,72.7,62.3,29.83,SW,221,4.9,5.4,70,0.00,,BKN070,0.00,VWS V14.01,2013-07-06 01:02:00,
2013-07-05 21:07:00,72.7,62.3,29.83,SSW,199,5.4,8.1,70,0.00,,BKN070,0.00,VWS V14.01,2013-07-06 01:07:00,
2013-07-05 21:12:00,72.5,62.6,29.83,SW,221,5.4,6.3,71,0.00,,BKN070,0.00,VWS V14.01,2013-07-06 01:12:00,
2013-07-05 21:17:00,72.5,62.6,29.83,SW,223,4.9,7.2,71,0.00,,BKN070,0.00,VWS V14.01,2013-07-06 01:17:00,
2013-07-05 21:23:00,72.3,62.4,29.83,SSW,197,4.0,5.8,71,0.00,,BKN070,0.00,VWS V14.01,2013-07-06 01:23:00,
2013-07-05 21:28:00,72.3,62.4,29.83,SW,214,5.4,8.1,71,0.00,,BKN070,0.00,VWS V14.01,2013-07-06 01:28:00,
2013-07-05 21:33:00,72.1,62.2,29.83,SSW,210,4.9,6.3,71,0.00,,BKN270,0.00,VWS V14.01,2013-07-06 01:33:00,
2013-07-05 21:38:00,72.1,62.2,29.83,SW,214,5.4,7.6,71,0.00,,BKN270,0.00,VWS V14.01,2013-07-06 01:38:00,
2013-07-05 21:43:00,72.0,62.5,29.83,SW,214,5.8,6.3,72,0.00,,BKN270,0.00,VWS V14.01,2013-07-06 01:43:00,
2013-07-05 21:48:00,72.0,62.5,29.83,SW,220,5.8,8.1,72,0.00,,BKN270,0.00,VWS V14.01,2013-07-06 01:48:00,
2013-07-05 21:53:00,71.8,62.3,29.83,SSW,200,5.8,5.8,72,0.00,,BKN270,0.00,VWS V14.01,2013-07-06 01:53:00,
2013-07-05 21:58:00,71.8,62.7,29.83,SSW,199,6.3,7.6,73,0.00,,BKN270,0.00,VWS V14.01,2013-07-06 01:58:00,
2013-07-05 22:03:00,71.8,62.7,29.83,SSW,211,5.4,6.7,73,0.00,,BKN270,0.00,VWS V14.01,2013-07-06 02:03:00,
2013-07-05 22:08:00,71.8,62.7,29.83,SSW,212,5.8,6.3,73,0.00,,BKN270,0.00,VWS V14.01,2013-07-06 02:08:00,
2013-07-05 22:13:00,71.6,62.9,29.83,SW,233,4.9,6.7,74,0.00,,BKN270,0.00,VWS V14.01,2013-07-06 02:13:00,
2013-07-05 22:18:00,71.6,62.9,29.83,SW,233,3.6,5.4,74,0.00,,BKN270,0.00,VWS V14.01,2013-07-06 02:18:00,
2013-07-05 22:23:00,71.4,63.1,29.83,SW,226,5.4,6.3,75,0.00,,BKN270,0.00,VWS V14.01,2013-07-06 02:23:00,
2013-07-05 22:28:00,71.4,63.1,29.83,SSW,206,3.6,5.8,75,0.00,,BKN270,0.00,VWS V14.01,2013-07-06 02:28:00,
2013-07-05 22:33:00,71.2,62.9,29.83,SW,235,0.0,4.0,75,0.00,,BKN280,0.00,VWS V14.01,2013-07-06 02:33:00,
2013-07-05 22:38:00,71.2,62.9,29.83,SW,218,2.7,4.0,75,0.00,,BKN280,0.00,VWS V14.01,2013-07-06 02:38:00,
2013-07-05 22:43:00,71.1,63.1,29.83,SW,224,4.0,6.3,76,0.00,,BKN280,0.00,VWS V14.01,2013-07-06 02:43:00,
2013-07-05 22:48:00,71.1,63.1,29.83,SW,229,6.3,6.3,76,0.00,,BKN280,0.00,VWS V14.01,2013-07-06 02:48:00,
2013-07-05 22:53:00,71.1,63.1,29.83,WSW,238,5.4,5.8,76,0.00,,BKN280,0.00,VWS V14.01,2013-07-06 02:53:00,
2013-07-05 22:58:00,71.1,63.5,29.83,SSW,195,4.0,6.3,77,0.00,,BKN280,0.00,VWS V14.01,2013-07-06 02:58:00,
2013-07-05 23:03:00,70.9,63.3,29.83,South,185,3.1,8.3,77,0.00,,BKN280,0.00,VWS V14.01,2013-07-06 03:03:00,
2013-07-05 23:08:00,70.9,63.3,29.83,WSW,239,6.3,8.3,77,0.00,,BKN280,0.00,VWS V14.01,2013-07-06 03:08:00,
2013-07-05 23:13:00,70.9,63.3,29.83,WSW,246,8.7,8.7,77,0.00,,BKN280,0.00,VWS V14.01,2013-07-06 03:13:00,
2013-07-05 23:18:00,70.9,63.3,29.83,SW,226,4.0,6.3,77,0.00,,BKN280,0.00,VWS V14.01,2013-07-06 03:18:00,
2013-07-05 23:23:00,70.7,63.1,29.83,SSW,211,2.7,5.8,77,0.00,,BKN280,0.00,VWS V14.01,2013-07-06 03:23:00,
2013-07-05 23:28:00,70.7,63.1,29.83,SW,222,8.3,8.3,77,0.00,,BKN280,0.00,VWS V14.01,2013-07-06 03:28:00,
2013-07-05 23:33:00,70.5,63.0,29.83,WSW,237,5.4,6.3,77,0.00,,BKN280,0.00,VWS V14.01,2013-07-06 03:33:00,
2013-07-05 23:38:00,70.5,63.0,29.83,SW,228,5.4,8.7,77,0.00,,BKN280,0.00,VWS V14.01,2013-07-06 03:38:00,
2013-07-05 23:43:00,70.5,63.0,29.83,South,174,8.1,9.6,77,0.00,,BKN280,0.00,VWS V14.01,2013-07-06 03:43:00,
2013-07-05 23:48:00,70.5,63.0,29.83,SW,235,6.3,10.5,77,0.00,,BKN280,0.00,VWS V14.01,2013-07-06 03:48:00,
2013-07-05 23:50:00,70.5,62.6,29.83,SW,223,8.7,10.5,76,0.00,,BKN280,0.00,VWS V14.01,2013-07-06 03:50:00,
2013-07-05 23:55:00,70.5,62.6,29.83,SW,220,5.8,5.8,76,0.00,,BKN280,0.00,VWS V14.01,2013-07-06 03:55:00,